This is the latest recevied weather packets stored in our database for station/object DG4MJS-10. If no packets are shown the sender has not sent any weather packets the latest 10 day(s).
| Time | Temp. | Humidity | Pressure | Rain* | Wind** | Luminosity | Snow |
|---|---|---|---|---|---|---|---|
| 1788073176 | 20.56° C | 65% | 1017.1 hPa | - | - | - | - |
| 1788072276 | 20.56° C | 66% | 1017.1 hPa | - | - | - | - |
| 1788071376 | 20° C | 67% | 1017.1 hPa | - | - | - | - |
| 1788070476 | 20° C | 68% | 1017.1 hPa | - | - | - | - |
| 1788069576 | 20° C | 68% | 1017.1 hPa | - | - | - | - |
| 1788068676 | 20° C | 71% | 1017 hPa | - | - | - | - |
| 1788067776 | 19.44° C | 73% | 1016.8 hPa | - | - | - | - |
| 1788066876 | 19.44° C | 74% | 1016.9 hPa | - | - | - | - |
| 1788065976 | 19.44° C | 74% | 1016.9 hPa | - | - | - | - |
| 1788065075 | 19.44° C | 74% | 1016.7 hPa | - | - | - | - |
| 1788064175 | 19.44° C | 74% | 1016.8 hPa | - | - | - | - |
| 1788063278 | 19.44° C | 73% | 1016.8 hPa | - | - | - | - |
| 1788062378 | 19.44° C | 73% | 1017 hPa | - | - | - | - |
| 1788061478 | 19.44° C | 72% | 1016.8 hPa | - | - | - | - |
| 1788060578 | 19.44° C | 71% | 1016.7 hPa | - | - | - | - |
| 1788059678 | 19.44° C | 71% | 1016.7 hPa | - | - | - | - |
| 1788058778 | 19.44° C | 70% | 1016.7 hPa | - | - | - | - |
| 1788057878 | 19.44° C | 69% | 1016.8 hPa | - | - | - | - |
| 1788056978 | 20° C | 65% | 1016.8 hPa | - | - | - | - |
| 1788056077 | 20° C | 62% | 1016.8 hPa | - | - | - | - |
| 1788055177 | 19.44° C | 64% | 1016.7 hPa | - | - | - | - |
| 1788054277 | 19.44° C | 69% | 1016.7 hPa | - | - | - | - |
| 1788053377 | 19.44° C | 69% | 1016.7 hPa | - | - | - | - |
| 1788052477 | 19.44° C | 67% | 1016.7 hPa | - | - | - | - |
| 1788051577 | 19.44° C | 66% | 1016.8 hPa | - | - | - | - |
* Rain since midnight (hover to see other rain measurements)
** Current wind speed in m/s (hover to see current wind gust speed)